Content
SEND FEEDBACK

Daily
Averages
Monthly
Summary
United Kingdom

INVERNESS, SCOTLAND


Home > Europe > United Kingdom > Scotland
Elevation: 30 feet     Latitude: 57 32N     Longitude: 004 03W

WEATHER
 
SELECT A DAY
Number of Records: 236,074;   Date Range: 7/1/96 - 12/16/14
 
SHARE

PRINT THIS DATA

[ ← Previous Day ]
WEATHER ALMANAC - FEBRUARY 13, 2013
[ Next Day → ]
[ °C ]   °F
Weather ElementAverageHighLow
Temperature37 °F44.6 °F (11:50 pm)33.8 °F (6:20 am)
Dewpoint31.3 °F41 °F (11:50 pm)23 °F (2:20 am)
Humidity80.4 %93 % (3:20 pm)60 % (2:20 am)
Barometer29.65 in29.98 in (12:50 am)29.36 in (7:50 pm)
Wind Speed10.6 mph18.4 mph (4:50 am)
Wind Gust29.9 mph (3:20 am)
Weather ElementAverage
Visibility5.3 mi
Wind DirectionSSE (159.4 °)

Weather ElementTotal
Precipitation---
Heating Degree Days25.8 (Base 65)
Averaged from 47 records on February 13, 2013
WEATHER CONDITIONS BREAKOUT
WIND DIRECTION BREAKOUT
WEATHER BY HOUR - FEBRUARY 13, 2013
[ °C ]   °F
Local TimeTemperatureDewpointHumidityBarometerVisibilityWind DirectionWind SpeedGust SpeedPrecipitationEventsConditions
12:50 AM35.6 °F26.6 °F70 %29.98 in6.2 miSouth (180°)8.1 mph
1:20 AM35.6 °F26.6 °F70 %29.98 in6.2 miSSW (200°)6.9 mph
1:50 AM35.6 °F24.8 °F65 %29.98 in6.2 miSSW (200°)11.5 mph
2:20 AM35.6 °F23.0 °F60 %29.95 in6.2 miSouth (190°)15.0 mph
2:50 AM35.6 °F24.8 °F65 %29.95 inSouth (190°)12.7 mphClear
3:20 AM35.6 °F23.0 °F60 %29.95 inSouth (190°)17.3 mph29.9 mphClear
3:50 AM35.6 °F24.8 °F65 %29.92 inSouth (170°)16.1 mphClear
4:20 AM35.6 °F24.8 °F65 %29.92 in6.2 miSouth (180°)16.1 mphScattered Clouds
4:50 AM35.6 °F26.6 °F70 %29.89 in6.2 miSouth (170°)18.4 mphMostly Cloudy
5:20 AM35.6 °F26.6 °F70 %29.89 in6.2 miSouth (170°)12.7 mphMostly Cloudy
5:50 AM35.6 °F26.6 °F70 %29.86 in6.2 miSouth (170°)15.0 mphRainLight Rain
6:20 AM33.8 °F28.4 °F81 %29.86 in2.8 miSouth (190°)15.0 mphSnowLight Snow
6:50 AM35.6 °F26.6 °F70 %29.83 in6.2 miSouth (190°)11.5 mphMostly Cloudy
7:20 AM35.6 °F26.6 °F70 %29.80 in6.2 miSSW (210°)10.4 mph21.9 mphMostly Cloudy
7:50 AM35.6 °F26.6 °F70 %29.80 in5.6 miSSW (210°)11.5 mph24.2 mphMostly Cloudy
8:20 AM35.6 °F28.4 °F75 %29.77 in5.6 miSSW (210°)13.8 mphMostly Cloudy
8:50 AM35.6 °F30.2 °F81 %29.77 in3.7 miSSW (210°)13.8 mphMostly Cloudy
9:20 AM33.8 °F30.2 °F87 %29.77 in1.2 miSSW (210°)10.4 mphSnowLight Snow Showers
9:50 AM33.8 °F30.2 °F87 %29.74 in3.1 miSW (220°)12.7 mphSnowLight Snow Showers
10:20 AM35.6 °F30.2 °F81 %29.74 in3.7 miSW (220°)11.5 mphMostly Cloudy
10:50 AM35.6 °F30.2 °F81 %29.71 in2.5 miSSW (210°)12.7 mphSnowLight Snow Showers
11:20 AM35.6 °F32.0 °F87 %29.71 in3.7 miSSW (210°)15.0 mphSnowLight Snow Showers
11:50 AM35.6 °F32.0 °F87 %29.68 in3.7 miSSW (210°)16.1 mphLight Small Hail Showers
12:20 PM35.6 °F32.0 °F87 %29.65 in5.6 miSSW (210°)17.3 mphRain-SnowLight Rain Showers
12:50 PM35.6 °F32.0 °F87 %29.65 in5.6 miSSW (210°)13.8 mphMostly Cloudy
1:20 PM35.6 °F32.0 °F87 %29.62 in4.3 miSSW (210°)13.8 mphRainRain
1:50 PM35.6 °F32.0 °F87 %29.62 in3.7 miSW (220°)13.8 mphRainRain
2:20 PM35.6 °F32.0 °F87 %29.56 in3.7 miSW (230°)5.8 mphRain-SnowRain
2:50 PM35.6 °F32.0 °F87 %29.53 in3.7 miVariable4.6 mphRain-SnowRain
3:20 PM35.6 °F33.8 °F93 %29.50 in5.0 miVariable4.6 mph17.3 mphRain-SnowLight Rain
3:50 PM37.4 °F33.8 °F87 %29.47 in6.2 miSW (220°)18.4 mph29.9 mphRain-SnowLight Rain
4:20 PM37.4 °F33.8 °F87 %29.44 in6.2 miSSW (210°)9.2 mphRainLight Rain
4:50 PM39.2 °F33.8 °F81 %29.44 in6.2 miSSW (210°)12.7 mphRainLight Rain
5:20 PM37.4 °F33.8 °F87 %29.42 in6.2 miVariable3.5 mphRainLight Rain
5:50 PM37.4 °F33.8 °F87 %29.42 in6.2 miVariable3.5 mphRainLight Rain
6:20 PM35.6 °F33.8 °F93 %29.39 in6.2 miVariable3.5 mphScattered Clouds
6:50 PM39.2 °F35.6 °F87 %29.39 in6.2 miNorth (10°)8.1 mphScattered Clouds
7:20 PM41.0 °F35.6 °F81 %29.39 in6.2 miVariable3.5 mphScattered Clouds
7:50 PM39.2 °F35.6 °F87 %29.36 in6.2 miNNE (20°)4.6 mphScattered Clouds
8:20 PM39.2 °F35.6 °F87 %29.36 in6.2 miNE (40°)5.8 mphScattered Clouds
8:50 PM41.0 °F37.4 °F87 %29.36 in6.2 miWNW (300°)4.6 mphRainLight Rain
9:20 PM41.0 °F39.2 °F93 %29.39 in6.2 miVariable3.5 mphRainRain
9:50 PM42.8 °F37.4 °F81 %29.39 in6.2 miSouth (190°)15.0 mphDrizzle
10:20 PM41.0 °F37.4 °F87 %29.39 in6.2 miWest (260°)4.6 mphScattered Clouds
10:50 PM42.8 °F39.2 °F87 %29.36 in6.2 miSSW (210°)5.8 mph
11:20 PM41.0 °F39.2 °F93 %29.39 in6.2 miVariable2.3 mph
11:50 PM44.6 °F41.0 °F87 %29.39 in6.2 miSW (230°)12.7 mphScattered Clouds
Hourly data recorded from EGPE, located miles away from Inverness, Scotland







STORIES FROM OUR PARTNERS